When you browse on this site, cookies collect data to enhance your experience and personalize the content and advertising you see.
Visit our Privacy Policy to learn more. By continuing to use the site, you agree to this use of cookies and data.
  • In Sweden
  • List of Countries
  • For 7 days
  • Water Temperature
  • Weather Map
  • Weather Widgets
  • user-avatar
    Login

    Hourly Weather Lincoln

    Today, 18 January, Saturday

    Time Temperature Precipitation Wind Pressure Humidity
    00:00 +1°C° 0 mm 5 mps 758 mmHg 85%
    01:00 +1°C° 0 mm 5 mps 758 mmHg 83%
    02:00 +1°C° 0 mm 5 mps 759 mmHg 82%
    03:00 +1°C° 0 mm 5 mps 759 mmHg 80%
    04:00 +1°C° 0 mm 4 mps 760 mmHg 80%
    05:00 0°C° 0 mm 4 mps 760 mmHg 79%
    06:00 0°C° 0 mm 4 mps 761 mmHg 79%
    07:00 0°C° 0 mm 4 mps 762 mmHg 79%
    08:00 0°C° 0 mm 4 mps 762 mmHg 80%
    09:00 0°C° 0 mm 4 mps 763 mmHg 81%
    10:00 +3°C° 0 mm 4 mps 764 mmHg 77%
    11:00 +3°C° 0 mm 5 mps 764 mmHg 73%
    12:00 +5°C° 0 mm 5 mps 765 mmHg 69%
    13:00 +5°C° 0 mm 5 mps 765 mmHg 70%
    14:00 +5°C° 0 mm 5 mps 766 mmHg 72%
    15:00 +5°C° 0 mm 4 mps 766 mmHg 73%
    16:00 +4°C° 0 mm 4 mps 767 mmHg 75%
    17:00 +3°C° 0 mm 4 mps 768 mmHg 78%
    18:00 +2°C° 0 mm 3 mps 768 mmHg 80%
    19:00 +2°C° 0 mm 3 mps 769 mmHg 80%
    20:00 +2°C° 0 mm 3 mps 770 mmHg 80%
    21:00 +1°C° 0 mm 3 mps 770 mmHg 80%
    22:00 +1°C° 0 mm 3 mps 771 mmHg 81%
    23:00 +1°C° 0 mm 3 mps 772 mmHg 82%

    Tomorrow, 19 January, Sunday

    Time Temperature Precipitation Wind Pressure Humidity
    00:00 0°C° 0 mm 3 mps 773 mmHg 83%
    01:00 0°C° 0 mm 3 mps 773 mmHg 83%
    02:00 0°C° 0 mm 3 mps 773 mmHg 84%
    03:00 +1°C° 0 mm 2 mps 774 mmHg 85%
    04:00 -1°C° 0 mm 2 mps 774 mmHg 83%
    05:00 -1°C° 0 mm 2 mps 775 mmHg 82%
    06:00 -1°C° 0 mm 2 mps 775 mmHg 81%
    07:00 +1°C° 0 mm 2 mps 776 mmHg 79%
    08:00 +1°C° 0 mm 2 mps 777 mmHg 77%
    09:00 +2°C° 0 mm 1 mps 778 mmHg 75%
    10:00 +3°C° 0 mm 1 mps 778 mmHg 71%
    11:00 +5°C° 0 mm 1 mps 778 mmHg 67%
    12:00 +6°C° 0 mm 1 mps 778 mmHg 62%
    13:00 +6°C° 0 mm 1 mps 778 mmHg 65%
    14:00 +6°C° 0 mm 1 mps 779 mmHg 67%
    15:00 +6°C° 0 mm 1 mps 779 mmHg 70%
    16:00 +5°C° 0 mm 1 mps 779 mmHg 72%
    17:00 +4°C° 0 mm 1 mps 779 mmHg 75%
    18:00 +3°C° 0 mm 1 mps 779 mmHg 77%
    19:00 +2°C° 0 mm 1 mps 779 mmHg 80%
    20:00 +2°C° 0 mm 1 mps 780 mmHg 82%
    21:00 +2°C° 0 mm 1 mps 780 mmHg 85%
    22:00 +2°C° 0 mm 1 mps 780 mmHg 85%
    23:00 +1°C° 0 mm 2 mps 780 mmHg 86%

    Day after tomorrow, 20 January, Monday

    Time Temperature Precipitation Wind Pressure Humidity
    00:00 +1°C° 0 mm 2 mps 781 mmHg 87%
    01:00 +1°C° 0 mm 2 mps 781 mmHg 87%
    02:00 +1°C° 0 mm 2 mps 780 mmHg 87%
    03:00 +1°C° 0 mm 2 mps 780 mmHg 87%
    04:00 +1°C° 0 mm 2 mps 780 mmHg 87%
    05:00 +1°C° 0 mm 2 mps 780 mmHg 87%
    06:00 +1°C° 0 mm 2 mps 780 mmHg 87%
    07:00 +1°C° 0 mm 2 mps 780 mmHg 85%
    08:00 +1°C° 0 mm 2 mps 780 mmHg 84%
    09:00 +1°C° 0 mm 2 mps 781 mmHg 82%
    10:00 +3°C° 0 mm 2 mps 780 mmHg 78%
    11:00 +4°C° 0 mm 2 mps 780 mmHg 74%
    12:00 +6°C° 0 mm 2 mps 780 mmHg 70%
    13:00 +5°C° 0 mm 2 mps 780 mmHg 72%
    14:00 +5°C° 0 mm 2 mps 779 mmHg 74%
    15:00 +5°C° 0 mm 2 mps 779 mmHg 76%
    16:00 +4°C° 0 mm 2 mps 779 mmHg 78%
    17:00 +3°C° 0 mm 2 mps 779 mmHg 81%
    18:00 +2°C° 0 mm 2 mps 779 mmHg 83%
    19:00 +2°C° 0 mm 2 mps 779 mmHg 82%
    20:00 +2°C° 0 mm 2 mps 779 mmHg 81%
    21:00 +1°C° 0 mm 2 mps 779 mmHg 79%
    22:00 +1°C° 0 mm 2 mps 778 mmHg 79%
    23:00 +1°C° 0 mm 2 mps 778 mmHg 78%

    21 January, Tuesday

    Time Temperature Precipitation Wind Pressure Humidity
    00:00 +1°C° 0 mm 2 mps 778 mmHg 77%
    01:00 +1°C° 0 mm 2 mps 778 mmHg 78%
    02:00 +1°C° 0 mm 2 mps 778 mmHg 79%
    03:00 +2°C° 0 mm 1 mps 777 mmHg 80%
    04:00 +2°C° 0 mm 1 mps 777 mmHg 81%
    05:00 +1°C° 0 mm 1 mps 777 mmHg 82%
    06:00 +1°C° 0 mm 1 mps 776 mmHg 83%
    07:00 +2°C° 0 mm 1 mps 776 mmHg 84%
    08:00 +2°C° 0 mm 1 mps 776 mmHg 84%
    09:00 +2°C° 0 mm 1 mps 776 mmHg 84%
    10:00 +3°C° 0 mm 1 mps 776 mmHg 82%
    11:00 +4°C° 0 mm 1 mps 776 mmHg 79%
    12:00 +4°C° 0 mm 2 mps 776 mmHg 76%
    13:00 +5°C° 0 mm 1 mps 776 mmHg 79%
    14:00 +5°C° 0 mm 1 mps 775 mmHg 81%
    15:00 +5°C° 0 mm 1 mps 775 mmHg 83%
    16:00 +4°C° 0 mm 1 mps 775 mmHg 86%
    17:00 +3°C° 0 mm 1 mps 775 mmHg 88%
    18:00 +2°C° 0 mm 1 mps 775 mmHg 90%
    19:00 +2°C° 0 mm 1 mps 775 mmHg 91%
    20:00 +2°C° 0 mm 1 mps 775 mmHg 91%
    21:00 +2°C° 0 mm 1 mps 775 mmHg 91%
    22:00 +2°C° 0 mm 1 mps 774 mmHg 91%
    23:00 +1°C° 0 mm 1 mps 774 mmHg 91%

    22 January, Wednesday

    Time Temperature Precipitation Wind Pressure Humidity
    00:00 +1°C° 0 mm 1 mps 774 mmHg 91%
    01:00 +1°C° 0 mm 1 mps 774 mmHg 91%
    02:00 +1°C° 0 mm 1 mps 774 mmHg 92%
    03:00 +1°C° 0 mm 1 mps 773 mmHg 92%
    04:00 +1°C° 0 mm 1 mps 773 mmHg 92%
    05:00 +1°C° 0 mm 1 mps 773 mmHg 93%
    06:00 +1°C° 0 mm 1 mps 773 mmHg 93%
    07:00 +2°C° 0 mm 1 mps 773 mmHg 94%
    08:00 +2°C° 0 mm 1 mps 773 mmHg 94%
    09:00 +3°C° 0 mm 1 mps 773 mmHg 95%
    10:00 +3°C° 0 mm 2 mps 773 mmHg 92%
    11:00 +5°C° 0 mm 2 mps 773 mmHg 90%
    12:00 +6°C° 0 mm 2 mps 773 mmHg 87%
    13:00 +6°C° 0 mm 2 mps 773 mmHg 88%
    14:00 +6°C° 0 mm 2 mps 772 mmHg 90%
    15:00 +6°C° 0 mm 2 mps 772 mmHg 92%
    16:00 +5°C° 0 mm 2 mps 772 mmHg 93%
    17:00 +4°C° 0 mm 2 mps 772 mmHg 94%
    18:00 +4°C° 0 mm 2 mps 772 mmHg 96%
    19:00 +4°C° 0 mm 2 mps 772 mmHg 96%
    20:00 +4°C° 0 mm 2 mps 772 mmHg 97%
    21:00 +4°C° 0 mm 2 mps 772 mmHg 97%
    22:00 +4°C° 0 mm 2 mps 772 mmHg 97%
    23:00 +6°C° 0 mm 1 mps 772 mmHg 98%

    23 January, Thursday

    Time Temperature Precipitation Wind Pressure Humidity
    00:00 +6°C° 0 mm 1 mps 772 mmHg 98%
    01:00 +6°C° 0 mm 1 mps 771 mmHg 98%
    02:00 +5°C° 0 mm 2 mps 771 mmHg 98%
    03:00 +5°C° 0 mm 2 mps 771 mmHg 98%
    04:00 +6°C° 0 mm 1 mps 770 mmHg 97%
    05:00 +6°C° 0 mm 1 mps 770 mmHg 97%
    06:00 +6°C° 0 mm 1 mps 770 mmHg 97%
    07:00 +6°C° 0 mm 1 mps 770 mmHg 96%
    08:00 +6°C° 0 mm 1 mps 770 mmHg 96%
    09:00 +6°C° 0 mm 1 mps 769 mmHg 95%
    10:00 +7°C° 0 mm 1 mps 769 mmHg 93%
    11:00 +7°C° 0 mm 1 mps 769 mmHg 90%
    12:00 +8°C° 0 mm 1 mps 769 mmHg 88%
    13:00 +7°C° 0 mm 0 mps 768 mmHg 87%
    14:00 +7°C° 0 mm 0 mps 768 mmHg 87%
    15:00 +7°C° 0 mm 0 mps 767 mmHg 86%
    16:00 +8°C° 0 mm 1 mps 767 mmHg 88%
    17:00 +7°C° 0 mm 1 mps 767 mmHg 90%
    18:00 +7°C° 0 mm 1 mps 767 mmHg 91%
    19:00 +7°C° 0 mm 1 mps 766 mmHg 91%
    20:00 +7°C° 0 mm 1 mps 766 mmHg 92%
    21:00 +7°C° 0 mm 1 mps 766 mmHg 92%
    22:00 +7°C° 0 mm 1 mps 766 mmHg 92%
    23:00 +7°C° 0 mm 1 mps 765 mmHg 93%
    Show more